Weather History for Delaware, OH

Change the Weather History Date:

Monday, June 24, 2013

  Actual Average Record
Temperature  
Mean Temperature 74 °F -  
Max Temperature 86 °F 80 °F 95 °F (1943)
Min Temperature 62 °F 57 °F 45 °F (1961)
Cooling Degree Days 9    
Growing Degree Days 24 (Base 50)    
Moisture  
Dew Point 63 °F    
Average Humidity 69    
Maximum Humidity 94    
Minimum Humidity 45    
Precipitation  
Precipitation 0.00 in - - ()
Sea Level Pressure  
Sea Level Pressure 30.10 in    
Wind  
Wind Speed 5 mph (SSW)    
Max Wind Speed 14 mph    
Max Gust Speed 20 mph    
Visibility 10 miles    
Events      
Averages and records for this station are not official NWS values.
T = Trace of Precipitation, MM = Missing Value Source: NWS Daily Summary

Daily Weather History Graph

Daily Weather History Graph

Search for Another Location

Airport:

Trip Planner

Search our weather history database for the weather conditions in past years. The results will help you decide how hot, cold, wet, or windy it might be!

Date:

Astronomy

Jun. 24, 2013 Rise Set
Actual Time 6:03 AM EDT 9:06 PM EDT
Civil Twilight 5:30 AM EDT 9:39 PM EDT
Nautical Twilight 4:48 AM EDT 10:21 PM EDT
Astronomical Twilight 3:59 AM EDT 11:10 PM EDT
Moon 10:07 PM EDT (6/24) 7:30 AM EDT (6/24)
Length of Visible Light 16h 08m
Length of Day
15h 02m
Full, 98% of the Moon is Illuminated
Jun 24
Full
Jun 30
Last Quarter
Jul 8
New
Jul 15
First Quarter
Jul 22
Full

Hourly Weather History & Observations

Time (EDT) Temp. Heat Index Dew Point Humidity Pressure Visibility Wind Dir Wind Speed Gust Speed Precip Events Conditions
12:15 AM 68.0 °F - 62.6 °F 83% 30.12 in 10.0 mi South 5.8 mph - N/A   Clear
12:35 AM 68.0 °F - 62.6 °F 83% 30.12 in 10.0 mi South 4.6 mph - N/A   Clear
12:56 AM 68.0 °F - 62.6 °F 83% 30.13 in 10.0 mi SSE 4.6 mph - N/A   Clear
1:15 AM 68.0 °F - 62.6 °F 83% 30.13 in 10.0 mi South 4.6 mph - N/A   Clear
1:36 AM 68.0 °F - 62.6 °F 83% 30.13 in 10.0 mi South 3.5 mph - N/A   Clear
1:56 AM 68.0 °F - 62.6 °F 83% 30.12 in 10.0 mi South 3.5 mph - N/A   Clear
2:15 AM 64.4 °F - 60.8 °F 88% 30.12 in 10.0 mi Calm Calm - N/A   Clear
2:36 AM 66.2 °F - 60.8 °F 83% 30.13 in 10.0 mi SSW 3.5 mph - N/A   Clear
2:56 AM 64.4 °F - 60.8 °F 88% 30.12 in 10.0 mi Calm Calm - N/A   Clear
3:15 AM 64.4 °F - 60.8 °F 88% 30.12 in 10.0 mi Calm Calm - N/A   Clear
3:36 AM 64.4 °F - 60.8 °F 88% 30.12 in 10.0 mi SSW 3.5 mph - N/A   Clear
3:56 AM 64.4 °F - 60.8 °F 88% 30.12 in 10.0 mi Calm Calm - N/A   Clear
4:15 AM 64.4 °F - 60.8 °F 88% 30.12 in 10.0 mi Calm Calm - N/A   Clear
4:36 AM 62.6 °F - 60.8 °F 94% 30.12 in 10.0 mi Calm Calm - N/A   Clear
4:56 AM 62.6 °F - 60.8 °F 94% 30.12 in 10.0 mi Calm Calm - N/A   Clear
5:15 AM 62.6 °F - 60.8 °F 94% 30.12 in 10.0 mi Calm Calm - N/A   Clear
5:36 AM 62.6 °F - 59.0 °F 88% 30.12 in 7.0 mi Calm Calm - N/A   Clear
5:56 AM 62.6 °F - 60.8 °F 94% 30.12 in 7.0 mi Calm Calm - N/A   Clear
6:15 AM 62.6 °F - 60.8 °F 94% 30.12 in 7.0 mi Calm Calm - N/A   Clear
6:36 AM 62.6 °F - 60.8 °F 94% 30.13 in 5.0 mi Calm Calm - N/A   Clear
6:56 AM 64.4 °F - 60.8 °F 88% 30.13 in 5.0 mi Calm Calm - N/A   Clear
7:15 AM 64.4 °F - 62.6 °F 94% 30.14 in 5.0 mi Calm Calm - N/A   Clear
7:36 AM 68.0 °F - 62.6 °F 83% 30.14 in 7.0 mi Calm Calm - N/A   Clear
7:56 AM 68.0 °F - 64.4 °F 88% 30.15 in 7.0 mi Calm Calm - N/A   Clear
8:15 AM 69.8 °F - 64.4 °F 83% 30.15 in 10.0 mi South 3.5 mph - N/A   Clear
8:36 AM 71.6 °F - 64.4 °F 78% 30.15 in 10.0 mi South 4.6 mph - N/A   Clear
8:56 AM 73.4 °F - 64.4 °F 73% 30.16 in 10.0 mi SSW 4.6 mph - N/A   Clear
9:15 AM 75.2 °F - 64.4 °F 69% 30.16 in 10.0 mi South 4.6 mph - N/A   Clear
9:36 AM 77.0 °F - 64.4 °F 65% 30.16 in 10.0 mi South 6.9 mph - N/A   Clear
9:56 AM 77.0 °F - 64.4 °F 65% 30.16 in 10.0 mi SSW 4.6 mph - N/A   Clear
10:15 AM 78.8 °F - 64.4 °F 61% 30.15 in 10.0 mi SSW 6.9 mph - N/A   Clear
10:36 AM 80.6 °F 82.7 °F 66.2 °F 61% 30.15 in 10.0 mi SSW 5.8 mph - N/A   Clear
10:56 AM 80.6 °F 82.7 °F 66.2 °F 61% 30.15 in 10.0 mi South 10.4 mph - N/A   Clear
11:15 AM 80.6 °F 82.3 °F 64.4 °F 58% 30.15 in 10.0 mi SW 11.5 mph 17.3 mph N/A   Clear
11:36 AM 82.4 °F 83.9 °F 64.4 °F 54% 30.15 in 10.0 mi SW 9.2 mph 19.6 mph N/A   Clear
11:55 AM 82.4 °F 84.6 °F 66.2 °F 58% 30.15 in 10.0 mi SSW 12.7 mph - N/A   Clear
12:16 PM 82.4 °F 83.9 °F 64.4 °F 54% 30.15 in 10.0 mi WSW 11.5 mph 17.3 mph N/A   Scattered Clouds
12:36 PM 84.2 °F 85.6 °F 64.4 °F 51% 30.14 in 10.0 mi SW 11.5 mph 17.3 mph N/A   Scattered Clouds
12:55 PM 82.4 °F 83.9 °F 64.4 °F 54% 30.13 in 10.0 mi WSW 8.1 mph - N/A   Mostly Cloudy
1:16 PM 82.4 °F 83.9 °F 64.4 °F 54% 30.12 in 10.0 mi WSW 8.1 mph - N/A   Mostly Cloudy
1:36 PM 84.2 °F 85.6 °F 64.4 °F 51% 30.12 in 10.0 mi WSW 13.8 mph 19.6 mph N/A   Mostly Cloudy
1:55 PM 86.0 °F 87.3 °F 64.4 °F 48% 30.11 in 10.0 mi West 10.4 mph 18.4 mph N/A   Scattered Clouds
2:16 PM 82.4 °F 83.9 °F 64.4 °F 54% 30.11 in 7.0 mi West 11.5 mph 19.6 mph N/A   Scattered Clouds
2:36 PM 84.2 °F 85.6 °F 64.4 °F 51% 30.09 in 10.0 mi West 8.1 mph - N/A   Scattered Clouds
2:55 PM 86.0 °F 88.2 °F 66.2 °F 51% 30.09 in 10.0 mi West 9.2 mph 16.1 mph N/A   Scattered Clouds
3:16 PM 82.4 °F 83.4 °F 62.6 °F 51% 30.08 in 10.0 mi SW 9.2 mph - N/A   Scattered Clouds
3:36 PM 84.2 °F 84.4 °F 60.8 °F 45% 30.08 in 10.0 mi SW 9.2 mph - N/A   Clear
3:55 PM 84.2 °F 85.6 °F 64.4 °F 51% 30.07 in 10.0 mi West 8.1 mph - N/A   Clear
4:16 PM 84.2 °F 85.6 °F 64.4 °F 51% 30.07 in 10.0 mi SW 6.9 mph - N/A   Scattered Clouds
4:36 PM 84.2 °F 85.6 °F 64.4 °F 51% 30.06 in 10.0 mi South 8.1 mph - N/A   Scattered Clouds
4:55 PM 82.4 °F 84.6 °F 66.2 °F 58% 30.06 in 10.0 mi SSW 8.1 mph - N/A   Scattered Clouds
5:16 PM 84.2 °F 85.0 °F 62.6 °F 48% 30.05 in 10.0 mi SW 8.1 mph - N/A   Scattered Clouds
5:36 PM 82.4 °F 83.9 °F 64.4 °F 54% 30.05 in 10.0 mi SSW 8.1 mph - N/A   Scattered Clouds
5:55 PM 84.2 °F 85.6 °F 64.4 °F 51% 30.04 in 10.0 mi SSW 8.1 mph - N/A   Scattered Clouds
6:16 PM 82.4 °F 83.9 °F 64.4 °F 54% 30.03 in 10.0 mi SSW 10.4 mph - N/A   Scattered Clouds
6:36 PM 82.4 °F 83.9 °F 64.4 °F 54% 30.03 in 10.0 mi SW 10.4 mph - N/A   Scattered Clouds
6:55 PM 82.4 °F 83.9 °F 64.4 °F 54% 30.03 in 10.0 mi SW 9.2 mph - N/A   Clear
7:16 PM 82.4 °F 83.9 °F 64.4 °F 54% 30.03 in 10.0 mi SW 5.8 mph - N/A   Clear
7:36 PM 80.6 °F 82.3 °F 64.4 °F 58% 30.04 in 10.0 mi SW 8.1 mph - N/A   Clear
7:55 PM 80.6 °F 82.3 °F 64.4 °F 58% 30.05 in 10.0 mi SW 5.8 mph - N/A   Clear
8:16 PM 80.6 °F 82.3 °F 64.4 °F 58% 30.05 in 10.0 mi SW 5.8 mph - N/A   Clear
8:36 PM 78.8 °F - 64.4 °F 61% 30.05 in 10.0 mi SSW 6.9 mph - N/A   Clear
8:55 PM 78.8 °F - 64.4 °F 61% 30.04 in 10.0 mi SW 8.1 mph - N/A   Clear
9:16 PM 77.0 °F - 62.6 °F 61% 30.04 in 10.0 mi SSW 5.8 mph - N/A   Clear
9:36 PM 77.0 °F - 62.6 °F 61% 30.03 in 10.0 mi SW 4.6 mph - N/A   Clear
9:55 PM 75.2 °F - 62.6 °F 65% 30.05 in 10.0 mi WSW 4.6 mph - N/A   Clear
10:16 PM 73.4 °F - 62.6 °F 69% 30.05 in 10.0 mi SSW 4.6 mph - N/A   Clear
10:36 PM 73.4 °F - 62.6 °F 69% 30.06 in 10.0 mi South 3.5 mph - N/A   Clear
10:55 PM 73.4 °F - 62.6 °F 69% 30.07 in 10.0 mi SSW 4.6 mph - N/A   Clear
11:16 PM 73.4 °F - 62.6 °F 69% 30.07 in 10.0 mi SSW 6.9 mph - N/A   Clear
11:36 PM 73.4 °F - 64.4 °F 73% 30.08 in 10.0 mi SW 6.9 mph - N/A   Clear
11:55 PM 73.4 °F - 64.4 °F 73% 30.08 in 10.0 mi SSW 5.8 mph - N/A   Clear